Weerstation Grootegast  Weerstation Grootegast


15 daagse weersverwachting Mölndal (SE)

  • Overzicht
  • Per uur
  • 15 dagen
  • Extra
  • Vergelijk
  • Kaarten
  • Dagkaart
  • Meer »
  • Info
  • Statistieken
  • Directe link
    Temp 6h Neerslag Wind  
 05:45     20:48    Daglengte: 15:03 Morgen
02:00
15°
5.6 mm
3
08:00
15°
 
1
14:00
18°
 
3
20:00
16°
5.6 mm
3
 05:47     20:45    Daglengte: 14:58 Maandag 19 Aug
02:00
15°
4.4 mm
4
08:00
16°
 
6
14:00
18°
6.5 mm
6
warningclass
20:00
17°
13.0 mm
4
warningclass
 05:49     20:42    Daglengte: 14:53 Dinsdag 20 Aug
02:00
15°
8.1 mm
5
08:00
16°
5.4 mm
5
14:00
18°
13.9 mm
5
20:00
16°
29.3 mm
3
Locatie info
Region: Västra Götalands län
Latitude: 57.6547°N
Longitude: 12.0119°E
9 masl
Postcode: 431 31
Temp/Neerslag /Baro Onweer/Dauwpunt
    Temp Baro 1h Neerslag Dauwpunt Wind UV Bewolking  
 05:45     20:48    Daglengte: 15:03 Morgen
00:00
16°
1003.8 hPa 5.6 mm
49%
15.0°
3
Windvlaag: 6.9 m/s
29%
01:00
16°
1004.1 hPa
19%
14.4°
3
Windvlaag: 4.9 m/s
40%
02:00
15°
1004.3 hPa
20%
14.3°
3
Windvlaag: 4.7 m/s
46%
03:00
15°
1004.2 hPa
18%
14.1°
2
Windvlaag: 3.9 m/s
39%
04:00
15°
1004.1 hPa
20%
13.9°
2
Windvlaag: 3.4 m/s
16%
05:00
14°
1004.1 hPa
33%
13.5°
1
Windvlaag: 3 m/s
26%
06:00
14°
1004.0 hPa
29%
13.0°
1
Windvlaag: 2.6 m/s
17%
07:00
14°
1003.8 hPa
22%
13.5°
1
Windvlaag: 2.3 m/s
23%
08:00
15°
1003.7 hPa
22%
14.0°
1
Windvlaag: 2.5 m/s
56%
09:00
17°
1003.6 hPa
24%
14.0°
2
Windvlaag: 3.1 m/s
67%
10:00
17°
1003.5 hPa
26%
14.1°
2
Windvlaag: 3.8 m/s
75%
11:00
17°
1003.5 hPa
15%
13.7°
3
Windvlaag: 4.1 m/s
90%
12:00
17°
1003.6 hPa
22%
13.3°
3
Windvlaag: 4.8 m/s
87%
13:00
18°
1003.3 hPa
61%
13.5°
2
Windvlaag: 4.7 m/s
86%
14:00
18°
1003.1 hPa
15%
12.5°
3
Windvlaag: 5.2 m/s
80%
15:00
18°
1002.7 hPa
29%
13.1°
3
Windvlaag: 5 m/s
80%
16:00
18°
1002.7 hPa 1.1 mm
77%
12.7°
4
Windvlaag: 6.4 m/s
89%
17:00
17°
1002.4 hPa 1.1 mm
79%
13.7°
4
Windvlaag: 7 m/s
84%
18:00
17°
1002.1 hPa 1.1 mm
82%
13.7°
4
Windvlaag: 7.1 m/s
77%
19:00
17°
1001.8 hPa 1.4 mm
82%
13.0°
4
Windvlaag: 6.9 m/s
81%
20:00
16°
1001.6 hPa 0.8 mm
82%
13.3°
3
Windvlaag: 8 m/s
87%
21:00
16°
1001.7 hPa 1.6 mm
82%
14.1°
3
Windvlaag: 6.9 m/s
86% warningclass
22:00
15°
1001.9 hPa 1.3 mm
82%
14.0°
3
Windvlaag: 9.2 m/s
65% warningclass
23:00
15°
1002.3 hPa 1.5 mm
82%
12.9°
4
Windvlaag: 8.6 m/s
38%
 05:47     20:45    Daglengte: 14:58 Maandag 19 Aug
00:00
15°
1003.0 hPa
82%
12.2°
4
Windvlaag: 8.7 m/s
20%
01:00
15°
1003.3 hPa
18%
12.0°
4
Windvlaag: 8.8 m/s
12%
02:00
15°
1003.9 hPa
18%
12.2°
4
Windvlaag: 7.9 m/s
10%
03:00
15°
1004.3 hPa
18%
12.4°
5
Windvlaag: 7.9 m/s
8%
04:00
15°
1004.4 hPa
15%
11.5°
4
Windvlaag: 8.9 m/s
15%
05:00
15°
1004.6 hPa
14%
11.8°
4
Windvlaag: 8.6 m/s
7%
06:00
15°
1004.9 hPa
14%
12.3°
4
Windvlaag: 7.8 m/s
2%
07:00
15°
1005.3 hPa
68%
12.6°
4
Windvlaag: 8 m/s
7%
08:00
16°
1005.7 hPa
77%
13.2°
6
Windvlaag: 10.3 m/s
21%
09:00
17°
1006.0 hPa
82%
13.3°
6
Windvlaag: 11 m/s
27%
10:00
17°
1006.4 hPa 1.2 mm
82%
13.3°
6
Windvlaag: 11.4 m/s
19%
11:00
17°
1006.7 hPa 1.8 mm
82%
13.1°
6
Windvlaag: 11.5 m/s
35%
12:00
18°
1007.2 hPa 2.3 mm
82%
13.4°
6
Windvlaag: 11.9 m/s
50% warningclass
13:00
18°
1007.4 hPa
82%
13.3°
7
Windvlaag: 11.5 m/s
33%
14:00
18°
1007.9 hPa 1.2 mm
82%
15.2°
6
Windvlaag: 11.6 m/s
44% warningclass
15:00
18°
1008.2 hPa 1.8 mm
82%
13.2°
7
Windvlaag: 11.6 m/s
37%
16:00
18°
1008.6 hPa 2.0 mm
82%
13.6°
7
Windvlaag: 12.7 m/s
54% warningclass
17:00
18°
1009.3 hPa 1.7 mm
100%
14.7°
6
Windvlaag: 12.1 m/s
68%
18:00
17°
1009.4 hPa 1.8 mm
100%
13.5°
5
Windvlaag: 9.3 m/s
53%
19:00
17°
1009.7 hPa 3.0 mm
100%
13.7°
4
Windvlaag: 9.2 m/s
41% warningclass
20:00
17°
1010.1 hPa 2.7 mm
89%
13.5°
4
Windvlaag: 7.6 m/s
57% warningclass
21:00
16°
1010.6 hPa 2.7 mm
100%
14.0°
4
Windvlaag: 8.4 m/s
44% warningclass
22:00
16°
1011.0 hPa 2.8 mm
100%
12.4°
5
Windvlaag: 8.2 m/s
16%
23:00
16°
1011.7 hPa 2.7 mm
100%
11.6°
6
Windvlaag: 9.3 m/s
34%
 05:49     20:42    Daglengte: 14:53 Dinsdag 20 Aug
00:00
15°
1012.1 hPa
100%
11.6°
5
Windvlaag: 9 m/s
41%
01:00
15°
1012.7 hPa
99%
11.1°
5
Windvlaag: 8.9 m/s
40%
02:00
15°
1013.0 hPa
37%
11.3°
5
Windvlaag: 8.6 m/s
33%
03:00
15°
1013.3 hPa
37%
11.5°
4
Windvlaag: 8.1 m/s
67%
04:00
15°
1013.6 hPa
83%
11.1°
5
Windvlaag: 7.7 m/s
35%
05:00
15°
1014.0 hPa
93%
11.3°
5
Windvlaag: 7.2 m/s
33%
06:00
15°
1014.4 hPa
90%
11.3°
4
Windvlaag: 6.4 m/s
32%
07:00
15°
1014.8 hPa 2.7 mm
100%
11.1°
4
Windvlaag: 6.2 m/s
29%
08:00
16°
1015.2 hPa 2.7 mm
100%
11.1°
5
Windvlaag: 7.6 m/s
31%
09:00
16°
1015.6 hPa 2.7 mm
100%
11.1°
5
Windvlaag: 8 m/s
42%
10:00
17°
1016.1 hPa 2.8 mm
100%
11.4°
5
Windvlaag: 8.7 m/s
38%
11:00
17°
1016.4 hPa 2.8 mm
100%
11.6°
5
Windvlaag: 9 m/s
38%
12:00
17°
1016.7 hPa 2.7 mm
100%
11.3°
5
Windvlaag: 9.2 m/s
35%
13:00
18°
1017.0 hPa 2.9 mm
100%
10.8°
5
Windvlaag: 9.5 m/s
42%
14:00
18°
1017.2 hPa
100%
11.0°
5
Windvlaag: 9.5 m/s
58%
15:00
18°
1017.3 hPa 2.7 mm
100%
12.4°
6
Windvlaag: 1.1 m/s
36%
16:00
17°
1017.4 hPa 3.2 mm
100%
11.4°
5
Windvlaag: 1.3 m/s
50% warningclass
17:00
17°
1017.6 hPa 6.2 mm
100%
11.8°
5
Windvlaag: 0.9 m/s
40% warningclass
18:00
17°
1017.8 hPa 6.0 mm
100%
11.8°
4
Windvlaag: 0.8 m/s
42% warningclass
19:00
16°
1018.1 hPa 5.7 mm
100%
12.1°
4
Windvlaag: 0.9 m/s
43% warningclass
20:00
16°
1018.3 hPa 5.4 mm
100%
12.3°
3
Windvlaag: 0.7 m/s
40%
21:00
15°
1018.8 hPa 16.0 mm
100%
12.5°
3
Windvlaag: 5.2 m/s
33%
22:00
15°
1019.1 hPa 16.0 mm
100%
12.6°
4
Windvlaag: 5.3 m/s
30%
23:00
15°
1019.4 hPa 16.0 mm
100%
12.6°
4
Windvlaag: 5.3 m/s
30%
Temp/Neerslag /Baro Onweer/Dauwpunt
    Temp Baro Neerslag Dauwpunt Wind Bewolking  
 05:45     20:48    Daglengte: 15:03 Morgen
02:00
15°
1004.3 hPa 5.6 mm 14.3°
3
46%
05:00
14°
1004.1 hPa   13.5°
1
26%
08:00
15°
1003.7 hPa   14.0°
1
56%
11:00
17°
1003.5 hPa   13.7°
3
90%
14:00
18°
1003.1 hPa   12.5°
3
80%
17:00
17°
1002.4 hPa 2.2 mm 13.7°
4
84%
20:00
16°
1001.6 hPa 3.4 mm 13.3°
3
87%
23:00
15°
1002.3 hPa 4.4 mm 12.9°
4
38%
 05:47     20:45    Daglengte: 14:58 Maandag 19 Aug
02:00
15°
1003.9 hPa   12.2°
4
10%
05:00
15°
1004.6 hPa   11.8°
4
7%
08:00
16°
1005.7 hPa   13.2°
6
21%
11:00
17°
1006.7 hPa 3.0 mm 13.1°
6
35%
14:00
18°
1007.9 hPa 3.5 mm 15.2°
6
44% warningclass
17:00
18°
1009.3 hPa 5.5 mm 14.7°
6
68%
20:00
17°
1010.1 hPa 7.5 mm 13.5°
4
57% warningclass
23:00
16°
1011.7 hPa 8.1 mm 11.6°
6
34%
 05:49     20:42    Daglengte: 14:53 Dinsdag 20 Aug
02:00
15°
1013.0 hPa   11.3°
5
33%
05:00
15°
1014.0 hPa   11.3°
5
33%
08:00
16°
1015.2 hPa 5.4 mm 11.1°
5
31%
11:00
17°
1016.4 hPa 8.3 mm 11.6°
5
38%
14:00
18°
1017.2 hPa 5.6 mm 11.0°
5
58%
17:00
17°
1017.6 hPa 12.1 mm 11.8°
5
40% warningclass
20:00
16°
1018.3 hPa 17.1 mm 12.3°
3
40%
23:00
15°
1019.4 hPa 48.0 mm 12.6°
4
30%
 05:51     20:40    Daglengte: 14:49 Woensdag 21 Aug
02:00
14°
1020.2 hPa 48.2 mm 12.8°
4
34%
05:00
14°
1021.6 hPa 26.7 mm 11.5°
5
29%
08:00
14°
1022.3 hPa 26.7 mm 10.7°
5
27%
11:00
16°
1023.3 hPa 26.8 mm 10.4°
5
41%
14:00
16°
1024.3 hPa 26.8 mm 9.8°
6
54%
17:00
16°
1024.4 hPa 26.8 mm 11.0°
4
32%
20:00
15°
1024.5 hPa 26.8 mm 11.8°
2
9%
23:00
15°
1024.9 hPa 26.8 mm 12.0°
2
30%
 05:54     20:37    Daglengte: 14:43 Donderdag 22 Aug
02:00
14°
1025.2 hPa 26.8 mm 12.1°
3
52%
05:00
15°
1024.9 hPa 26.8 mm 12.9°
3
71%
08:00
16°
1024.6 hPa 26.8 mm 13.6°
4
91%
11:00
17°
1024.2 hPa 26.8 mm 13.5°
5
91%
14:00
18°
1023.7 hPa 26.9 mm 13.3°
6
92%
17:00
16°
1022.6 hPa 29.6 mm 13.6°
6
92%
20:00
15°
1021.5 hPa 30.4 mm 13.7°
6
92%
23:00
15°
1020.8 hPa 30.6 mm 13.9°
5
92%
 05:56     20:35    Daglengte: 14:39 Vrijdag 23 Aug
02:00
14°
1020.1 hPa 30.6 mm 14.3°
4
92%
05:00
15°
1019.2 hPa 30.6 mm 14.8°
5
90%
08:00
16°
1018.4 hPa 30.6 mm 15.5°
6
88%
11:00
18°
1019.6 hPa 30.8 mm 14.8°
6
77%
14:00
19°
1020.8 hPa 30.8 mm 13.7°
6
65%
17:00
18°
1021.4 hPa 30.8 mm 13.4°
5
60%
20:00
16°
1022.1 hPa 30.8 mm 13.2°
4
54%
23:00
16°
1023.0 hPa 30.8 mm 13.2°
3
28%
 05:58     20:32    Daglengte: 14:34 Zaterdag 24 Aug
02:00
15°
1023.9 hPa 30.8 mm 13.1°
3
2%
05:00
15°
1024.4 hPa 30.8 mm 13.5°
3
31%
08:00
17°
1025.0 hPa 30.8 mm 14.1°
3
60%
11:00
18°
1025.7 hPa 30.8 mm 14.4°
3
71%
14:00
19°
1026.2 hPa 30.8 mm 14.4°
3
82%
17:00
18°
1025.7 hPa 30.8 mm 14.5°
2
41%
20:00
16°
1025.2 hPa 30.8 mm 14.4°
1
0%
23:00
15°
1025.2 hPa   13.5°
2
20%
 06:00     20:29    Daglengte: 14:29 Zondag 25 Aug
02:00
14°
1025.2 hPa 61.6 mm 12.7°
2
41%
08:00
16°
1024.3 hPa 61.6 mm 13.5°
3
22%
14:00
24°
1023.0 hPa 61.6 mm 14.7°
2
21%
20:00
19°
1021.5 hPa 61.6 mm 17.4°
1
42%
 06:02     20:27    Daglengte: 14:25 Maandag 26 Aug
02:00
16°
1021.6 hPa 61.6 mm 14.1°
4
20%
08:00
17°
1020.7 hPa 61.6 mm 13.4°
3
92%
14:00
23°
1020.7 hPa 61.9 mm 16.6°
2
47%
20:00
18°
1020.2 hPa 62.2 mm 16.9°
1
3%
 06:04     20:24    Daglengte: 14:20 Dinsdag 27 Aug
02:00
16°
1021.1 hPa 62.2 mm 14.8°
1
57%
08:00
16°
1021.2 hPa 62.2 mm 15.9°
1
92%
14:00
20°
1021.6 hPa 62.2 mm 12.3°
3
74%
20:00
16°
1016.5 hPa   11.3°
3
22%
 06:06     20:21    Daglengte: 14:15 Woensdag 28 Aug
02:00
14°
1017.6 hPa   10.5°
2
23%
08:00
14°
1017.5 hPa 0.1 mm 10.7°
2
29%
14:00
18°
1017.0 hPa 0.2 mm 10.9°
3
19%
20:00
16°
1016.5 hPa   11.0°
3
20%
 06:08     20:18    Daglengte: 14:10 Donderdag 29 Aug
02:00
14°
1016.8 hPa 0.1 mm 10.2°
3
30%
08:00
14°
1016.4 hPa   10.4°
2
23%
14:00
19°
1016.2 hPa 0.2 mm 10.9°
4
21%
20:00
16°
1015.1 hPa 0.2 mm 11.3°
3
11%
 06:10     20:16    Daglengte: 14:06 Vrijdag 30 Aug
02:00
14°
1015.3 hPa 0.4 mm 10.6°
2
14%
08:00
14°
1015.0 hPa 0.4 mm 10.6°
1
18%
14:00
18°
1014.7 hPa 0.5 mm 10.4°
2
21%
20:00
16°
1013.7 hPa 0.4 mm 10.8°
2
21%
 06:12     20:13    Daglengte: 14:01 Zaterdag 31 Aug
02:00
13°
1014.0 hPa   9.3°
1
24%
08:00
14°
1013.5 hPa 0.4 mm 10.4°
2
30%
14:00
18°
1013.5 hPa 0.3 mm 10.8°
3
39%
20:00
15°
1012.6 hPa 0.2 mm 11.1°
3
31%
 06:15     20:10    Daglengte: 13:55 Zondag 01 Sep
02:00
13°
1012.4 hPa 0.2 mm 10.8°
4
30%
08:00
14°
1011.8 hPa 0.6 mm 10.9°
4
35%
14:00
17°
1012.2 hPa 0.5 mm 11.0°
5
33%
20:00
15°
1011.8 hPa 0.2 mm 10.5°
4
30%
  CAPE Lifted Index Hail Supercell Tornado SRH 3km CL BTM PRES CL TOP PRES Swiss DWD icon SMHI TS
 05:45     20:48    Daglengte: 15:03 Morgen
00:00 74 J/kg 0.4 K 0 % 0 % 0 % 0 m²/s² 0 0 7.3 1
01:00 60 J/kg 0.1 K 0 % 0 % 0 % 0 m²/s² 0 0 7.21 1
02:00 46 J/kg 0.2 K 0 % 0 % 0 % 0 m²/s² 0 0 7.31 2
03:00 39 J/kg 0.1 K 0 % 0 % 0 % 0 m²/s² 0 0 7.45 2
04:00 66 J/kg -0.1 K 0 % 0 % 0 % 0 m²/s² 0 0 7.79 2
05:00 89 J/kg 0.1 K 0 % 0 % 0 % 0 m²/s² 0 0 6.76 1
06:00 88 J/kg 0.4 K 0 % 0 % 0 % 0 m²/s² 0 0 6.64 2
07:00 83 J/kg 0.7 K 0 % 0 % 0 % 0 m²/s² 0 0 6.76 2
08:00 111 J/kg 0.7 K 0 % 0 % 0 % 0 m²/s² 0 0 7.54 3
09:00 105 J/kg 1.0 K 0 % 0 % 0 % 0 m²/s² 0 0 7.66 3
10:00 119 J/kg 0.8 K 0 % 0 % 0 % 0 m²/s² 0 0 6.89 3
11:00 129 J/kg 1.1 K 0 % 0 % 0 % 0 m²/s² 0 0 4.52 3
12:00 169 J/kg 1.7 K 0 % 0 % 0 % 0 m²/s² 0 0 3.65 3
13:00 184 J/kg 2.4 K 0 % 0 % 0 % 0 m²/s² 0 0 4.05 3
14:00 151 J/kg 2.6 K 0 % 0 % 0 % 0 m²/s² 0 0 4.37 3
15:00 65 J/kg 3.2 K 0 % 0 % 0 % 0 m²/s² 0 0 5.03 3
16:00 39 J/kg 2.3 K 0 % 0 % 0 % 0 m²/s² 0 0 3.92 3
17:00 97 J/kg 1.8 K 0 % 0 % 0 % 0 m²/s² 0 0 3.09 61
18:00 43 J/kg 2.5 K 0 % 0 % 0 % 0 m²/s² 0 0 3.37 61
19:00 105 J/kg 1.2 K 0 % 0 % 0 % 0 m²/s² 0 0 1.95 80
20:00 263 J/kg -1.1 K 0 % 0 % 0 % 0 m²/s² 0 0 -0.98 80
21:00 477 J/kg -2.5 K 0 % 0 % 0 % 0 m²/s² 0 0 -2.2 61
22:00 679 J/kg -2.2 K 0 % 0 % 0 % 0 m²/s² 0 0 -2.08 61
23:00 534 J/kg -2.2 K 0 % 0 % 0 % 0 m²/s² 0 0 -1.39 80
 05:47     20:45    Daglengte: 14:58 Maandag 19 Aug
00:00 170 J/kg 0.7 K 0 % 0 % 0 % 0 m²/s² 0 0 2.77 2
01:00 65 J/kg 1.4 K 0 % 0 % 0 % 0 m²/s² 0 0 5.9 2
02:00 73 J/kg 1.3 K 0 % 0 % 0 % 0 m²/s² 0 0 7.33 2
03:00 89 J/kg 1.3 K 0 % 0 % 0 % 0 m²/s² 0 0 6.85 2
04:00 85 J/kg 1.2 K 0 % 0 % 0 % 0 m²/s² 0 0 5.91 2
05:00 98 J/kg 0.9 K 0 % 0 % 0 % 0 m²/s² 0 0 4.95 1
06:00 224 J/kg 0.0 K 0 % 0 % 0 % 0 m²/s² 0 0 3.72 1
07:00 334 J/kg -0.8 K 0 % 0 % 0 % 0 m²/s² 0 0 2.38 2
08:00 593 J/kg -1.8 K 0 % 0 % 0 % 0 m²/s² 0 0 0.75 80
09:00 817 J/kg -2.6 K 0 % 0 % 0 % 0 m²/s² 0 0 -0.5 2
10:00 813 J/kg -2.5 K 0 % 0 % 0 % 0 m²/s² 0 0 0.2 2
11:00 701 J/kg -2.2 K 0 % 0 % 0 % 0 m²/s² 0 0 0.35 80
12:00 735 J/kg -2.5 K 0 % 0 % 0 % 0 m²/s² 0 0 -0.04 95
13:00 883 J/kg -3.3 K 0 % 0 % 0 % 0 m²/s² 0 0 -2.04 2
14:00 947 J/kg -3.5 K 0 % 0 % 0 % 0 m²/s² 0 0 -2.6 2
15:00 832 J/kg -3.0 K 0 % 0 % 0 % 0 m²/s² 0 0 -1.8 2
16:00 867 J/kg -3.4 K 0 % 0 % 0 % 0 m²/s² 0 0 -2.65 80
17:00 0 J/kg 1.2 K 0 % 0 % 0 % 0 m²/s² 0 0 1.89 1
18:00 556 J/kg -2.5 K 0 % 0 % 0 % 0 m²/s² 0 0 -0.73 80
19:00 930 J/kg -3.7 K 0 % 0 % 0 % 0 m²/s² 0 0 -2.35 80
20:00 800 J/kg -3.5 K 0 % 0 % 0 % 0 m²/s² 0 0 -2.09 80
21:00 771 J/kg -3.2 K 0 % 0 % 0 % 0 m²/s² 0 0 -1.73 95
22:00 618 J/kg -2.3 K 0 % 0 % 0 % 0 m²/s² 0 0 -0.05 80
23:00 421 J/kg -1.5 K 0 % 0 % 0 % 0 m²/s² 0 0 0.96 2
 05:49     20:42    Daglengte: 14:53 Dinsdag 20 Aug
00:00 293 J/kg -1.0 K 0 % 0 % 0 % 0 m²/s² 0 0 1.61 80
01:00 313 J/kg -1.1 K 0 % 0 % 0 % 0 m²/s² 0 0 1.81 2
02:00 343 J/kg -1.4 K 0 % 0 % 0 % 0 m²/s² 0 0 1.93 2
03:00 331 J/kg -1.3 K 0 % 0 % 0 % 0 m²/s² 0 0 1.58 2
04:00 391 J/kg -1.3 K 0 % 0 % 0 % 0 m²/s² 0 0 0.92 2
05:00 456 J/kg -1.5 K 0 % 0 % 0 % 0 m²/s² 0 0 0.72 2
06:00 474 J/kg -1.7 K 0 % 0 % 0 % 0 m²/s² 0 0 0.4 1
07:00 491 J/kg -1.7 K 0 % 0 % 0 % 0 m²/s² 0 0 -0.71 2
08:00 589 J/kg -2.0 K 0 % 0 % 0 % 0 m²/s² 0 0 -1.1 80
09:00 658 J/kg -2.2 K 0 % 0 % 0 % 0 m²/s² 0 0 -1.21 80
10:00 542 J/kg -1.7 K 0 % 0 % 0 % 0 m²/s² 0 0 1.42 2
11:00 287 J/kg -0.6 K 0 % 0 % 0 % 0 m²/s² 0 0 3.78 80
12:00 196 J/kg 0.2 K 0 % 0 % 0 % 0 m²/s² 0 0 4.49 2
13:00 103 J/kg 1.0 K 0 % 0 % 0 % 0 m²/s² 0 0 5.2 80
14:00 182 J/kg 0.2 K 0 % 0 % 0 % 0 m²/s² 0 0 3.89 2
15:00 269 J/kg -0.4 K 0 % 0 % 0 % 0 m²/s² 0 0 2.12 80
16:00 380 J/kg -0.8 K 0 % 0 % 0 % 0 m²/s² 0 0 -0.44 95
17:00 371 J/kg -0.6 K 0 % 0 % 0 % 0 m²/s² 0 0 1.08 95
18:00 440 J/kg -0.9 K 0 % 0 % 0 % 0 m²/s² 0 0 -0.18 95
19:00 472 J/kg -1.0 K 0 % 0 % 0 % 0 m²/s² 0 0 0.62 95
20:00 510 J/kg -1.2 K 0 % 0 % 0 % 0 m²/s² 0 0 0.84 80
21:00 529 J/kg -1.4 K 0 % 0 % 0 % 0 m²/s² 0 0 0.82
22:00 580 J/kg -1.7 K 0 % 0 % 0 % 0 m²/s² 0 0 0.67
23:00 612 J/kg -1.8 K 0 % 0 % 0 % 0 m²/s² 0 0 0.78
Temp Baro Wind Neerslag
  EWN Forecast EWN WRFDA DWD ICON FMI HIRLAM MET Norway GFS
 05:45     20:48    Daglengte: 15:03 Morgen
02:00 15.4° 1004.3 hPa 2.5 m/s 5.6 mm 14.3° 1003.6 hPa 2.6 m/s 9.5 mm 15.4° 1004.4 hPa 2.9 m/s 3.5 mm 15.4° 1004.6 hPa 2.6 m/s 0.0 mm 16.1° 1004.3 hPa 1.2 m/s 0.0 mm 14.5° 1003.8 hPa 3.2 m/s
05:00 14.1° 1004.1 hPa 1.5 m/s 0.0 mm 13.3° 1003.2 hPa 2.0 m/s 9.5 mm 14.4° 1004.2 hPa 1.5 m/s 0.0 mm 13.3° 1004.1 hPa 1.3 m/s 0.0 mm 15.0° 1004.2 hPa 1.2 m/s 0.0 mm 13.7° 1004.1 hPa 2.4 m/s
08:00 15.4° 1003.7 hPa 1.3 m/s 0.0 mm 15.6° 1003.1 hPa 0.9 m/s 9.7 mm 15.5° 1003.7 hPa 1.1 m/s 0.0 mm 14.9° 1004.1 hPa 1.5 m/s 0.0 mm 16.0° 1003.5 hPa 1.3 m/s 0.0 mm 15.3° 1003.6 hPa 2.3 m/s
11:00 17.3° 1003.5 hPa 2.6 m/s 0.0 mm 17.2° 1002.9 hPa 2.7 m/s 10.2 mm 17.9° 1003.2 hPa 2.7 m/s 0.0 mm 16.9° 1004.8 hPa 2.9 m/s 0.0 mm 17.6° 1003.4 hPa 2.0 m/s 0.0 mm 17.4° 1003.7 hPa 4.3 m/s
14:00 18.2° 1003.1 hPa 2.7 m/s 0.0 mm 19.2° 1002.8 hPa 4.1 m/s 10.4 mm 18.7° 1002.5 hPa 2.2 m/s 0.0 mm 19.0° 1003.4 hPa 2.9 m/s 0.0 mm 17.8° 1003.1 hPa 2.4 m/s 0.0 mm 18.9° 1003.0 hPa 5.0 m/s
17:00 17.3° 1002.4 hPa 3.9 m/s 2.2 mm 19.4° 1002.1 hPa 4.9 m/s 10.4 mm 16.7° 1001.6 hPa 2.0 m/s 0.6 mm 17.2° 1003.1 hPa 5.3 m/s 0.0 mm 18.2° 1002.5 hPa 3.7 m/s 0.0 mm 17.5° 1002.9 hPa 5.5 m/s
20:00 16.1° 1001.6 hPa 3.2 m/s 3.4 mm 17.2° 1000.6 hPa 4.2 m/s 10.5 mm 15.4° 1001.6 hPa 2.2 m/s 2.0 mm 16.1° 1002.5 hPa 2.6 m/s 0.0 mm 16.9° 1001.2 hPa 3.5 m/s 0.0 mm 15.0° 1001.7 hPa 2.9 m/s
23:00 14.6° 1002.3 hPa 3.8 m/s 4.4 mm 16.1° 1001.5 hPa 3.8 m/s 12.8 mm 14.7° 1002.2 hPa 3.9 m/s 4.3 mm 14.9° 1002.9 hPa 2.3 m/s 0.0 mm 14.4° 1002.3 hPa 5.5 m/s 1.0 mm 14.2° 1002.3 hPa 4.4 m/s
 05:47     20:45    Daglengte: 14:58 Maandag 19 Aug
02:00 14.8° 1003.9 hPa 4.5 m/s 0.0 mm 14.5° 1002.1 hPa 4.1 m/s 14.1 mm 14.9° 1003.9 hPa 4.5 m/s 0.1 mm 14.9° 1003.2 hPa 3.1 m/s 0.0 mm 14.8° 1004.6 hPa 4.8 m/s 0.0 mm 13.7° 1003.6 hPa 5.2 m/s
05:00 14.7° 1004.6 hPa 4.4 m/s 0.0 mm 14.4° 1002.4 hPa 4.4 m/s 14.1 mm 14.8° 1004.9 hPa 4.4 m/s 0.0 mm 14.8° 1003.5 hPa 3.0 m/s 0.0 mm 15.0° 1005.3 hPa 4.8 m/s 0.0 mm 13.6° 1004.4 hPa 4.7 m/s
08:00 16.0° 1005.7 hPa 5.6 m/s 0.0 mm 16.5° 1003.6 hPa 6.6 m/s 14.3 mm 15.9° 1005.8 hPa 5.0 m/s 0.2 mm 15.7° 1005.0 hPa 4.5 m/s 0.0 mm 16.5° 1006.2 hPa 6.0 m/s 0.0 mm 15.6° 1005.4 hPa 6.2 m/s
11:00 17.5° 1006.7 hPa 6.4 m/s 3.0 mm 18.1° 1004.7 hPa 7.6 m/s 15.9 mm 17.4° 1007.0 hPa 5.9 m/s 0.6 mm 17.3° 1005.3 hPa 6.2 m/s 0.0 mm 18.3° 1007.7 hPa 6.4 m/s 0.0 mm 16.9° 1006.2 hPa 7.8 m/s
14:00 18.3° 1007.9 hPa 5.8 m/s 3.5 mm 18.3° 1006.1 hPa 7.0 m/s 17.4 mm 18.3° 1007.9 hPa 5.6 m/s 1.2 mm 18.2° 1006.5 hPa 7.4 m/s 0.0 mm 19.5° 1009.0 hPa 2.9 m/s 0.3 mm 18.3° 1007.3 hPa 7.4 m/s
17:00 17.8° 1009.3 hPa 5.6 m/s 5.5 mm 14.2° 1007.9 hPa 5.4 m/s 25.1 mm 18.1° 1009.0 hPa 4.8 m/s 0.5 mm 18.7° 1010.8 hPa 5.7 m/s 0.0 mm 17.2° 1008.7 hPa 6.1 m/s
20:00 16.7° 1010.1 hPa 4.2 m/s 7.5 mm 16.6° 1008.8 hPa 3.9 m/s 32.5 mm 16.3° 1009.6 hPa 4.1 m/s 1.1 mm 17.9° 1011.6 hPa 4.1 m/s 0.0 mm 15.1° 1010.2 hPa 6.3 m/s
23:00 15.6° 1011.7 hPa 5.5 m/s 8.1 mm 15.4° 1010.7 hPa 5.7 m/s 36.1 mm 15.4° 1011.2 hPa 4.7 m/s 1.5 mm 16.4° 1013.0 hPa 5.6 m/s 0.0 mm 13.9° 1012.7 hPa 6.0 m/s
 05:49     20:42    Daglengte: 14:53 Dinsdag 20 Aug
02:00 15.1° 1013.0 hPa 5.0 m/s 0.0 mm 14.8° 1012.2 hPa 4.6 m/s 37.0 mm 14.8° 1012.5 hPa 4.9 m/s 0.3 mm 16.5° 1014.3 hPa 4.9 m/s 0.0 mm 14.1° 1013.9 hPa 6.0 m/s
05:00 14.9° 1014.0 hPa 4.6 m/s 0.0 mm 14.7° 1012.5 hPa 4.7 m/s 37.1 mm 14.5° 1013.5 hPa 4.8 m/s 0.1 mm 16.2° 1015.2 hPa 3.5 m/s 0.0 mm 13.8° 1014.5 hPa 5.3 m/s
08:00 16.0° 1015.2 hPa 4.7 m/s 5.4 mm 16.2° 1013.0 hPa 5.8 m/s 37.1 mm 15.0° 1014.6 hPa 4.5 m/s 0.5 mm 16.6° 1016.4 hPa 4.1 m/s 0.0 mm 15.0° 1014.9 hPa 5.3 m/s
11:00 17.0° 1016.4 hPa 5.2 m/s 8.3 mm 17.1° 1014.4 hPa 6.0 m/s 38.0 mm 16.5° 1016.1 hPa 5.0 m/s 0.9 mm 17.9° 1017.5 hPa 4.9 m/s 0.0 mm 16.1° 1015.6 hPa 5.1 m/s
14:00 18.2° 1017.2 hPa 5.5 m/s 5.6 mm 18.2° 1015.4 hPa 5.5 m/s 38.4 mm 17.6° 1016.9 hPa 5.4 m/s 0.5 mm 19.7° 1017.9 hPa 5.6 m/s 0.0 mm 17.0° 1016.0 hPa 4.6 m/s
17:00 17.0° 1017.6 hPa 4.6 m/s 12.1 mm 16.9° 1016.0 hPa 2.9 m/s 41.8 mm 15.9° 1017.6 hPa 4.4 m/s 3.0 mm 17.5° 1017.9 hPa 5.2 m/s 0.4 mm 17.3° 1016.3 hPa 4.4 m/s
20:00 15.7° 1018.3 hPa 3.3 m/s 17.1 mm 16.3° 1016.6 hPa 2.4 m/s 47.4 mm 15.1° 1018.0 hPa 3.3 m/s 2.0 mm 15.8° 1018.9 hPa 3.4 m/s 0.0 mm 15.4° 1017.0 hPa 3.8 m/s
23:00 14.7° 1019.4 hPa 3.7 m/s 48.0 mm 13.9° 1017.8 hPa 2.3 m/s 48.0 mm 14.8° 1019.7 hPa 3.9 m/s 14.0° 1018.2 hPa 4.4 m/s
 05:51     20:40    Daglengte: 14:49 Woensdag 21 Aug
02:00 13.9° 1020.2 hPa 4.1 m/s 48.2 mm 14.6° 1018.1 hPa 2.4 m/s 48.2 mm 13.8° 1020.5 hPa 4.4 m/s 13.1° 1018.2 hPa 4.9 m/s
05:00 14.2° 1021.6 hPa 4.7 m/s 26.7 mm 14.3° 1021.9 hPa 4.6 m/s 13.6° 1018.2 hPa 6.2 m/s 26.7 mm
08:00 14.4° 1022.3 hPa 4.9 m/s 26.7 mm 14.5° 1022.6 hPa 4.7 m/s 13.6° 1019.1 hPa 7.2 m/s 26.7 mm
11:00 15.5° 1023.3 hPa 5.3 m/s 26.8 mm 15.4° 1023.6 hPa 5.2 m/s 16.1° 1020.0 hPa 6.3 m/s 26.8 mm
14:00 16.5° 1024.3 hPa 5.9 m/s 26.8 mm 16.4° 1024.6 hPa 5.8 m/s 17.2° 1021.1 hPa 6.6 m/s 26.8 mm
17:00 15.8° 1024.4 hPa 3.9 m/s 26.8 mm 15.6° 1024.7 hPa 3.6 m/s 16.9° 1021.4 hPa 7.0 m/s 26.8 mm
20:00 14.9° 1024.5 hPa 1.8 m/s 26.8 mm 14.9° 1024.7 hPa 1.4 m/s 14.8° 1022.6 hPa 6.0 m/s 26.8 mm
23:00 14.6° 1024.9 hPa 2.4 m/s 26.8 mm 14.8° 1025.0 hPa 2.2 m/s 13.4° 1024.0 hPa 4.4 m/s 26.8 mm
 05:54     20:37    Daglengte: 14:43 Donderdag 22 Aug
02:00 14.4° 1025.2 hPa 3.1 m/s 26.8 mm 14.6° 1025.2 hPa 3.1 m/s 12.4° 1024.7 hPa 3.5 m/s 26.8 mm
05:00 15.0° 1024.9 hPa 3.3 m/s 26.8 mm 15.2° 1024.9 hPa 3.4 m/s 11.8° 1024.4 hPa 2.8 m/s 26.8 mm
08:00 15.8° 1024.6 hPa 3.6 m/s 26.8 mm 15.9° 1024.6 hPa 3.6 m/s 14.1° 1024.8 hPa 3.2 m/s 26.8 mm
11:00 16.7° 1024.2 hPa 4.9 m/s 26.8 mm 16.8° 1024.1 hPa 4.9 m/s 16.2° 1024.9 hPa 5.1 m/s 26.8 mm
14:00 17.6° 1023.7 hPa 6.2 m/s 26.9 mm 17.7° 1023.6 hPa 6.2 m/s 16.3° 1024.5 hPa 5.8 m/s 26.9 mm
17:00 16.3° 1022.6 hPa 6.1 m/s 29.6 mm 16.5° 1022.5 hPa 6.2 m/s 14.0° 1024.0 hPa 3.9 m/s 29.6 mm
20:00 15.2° 1021.5 hPa 6.0 m/s 30.4 mm 15.3° 1021.3 hPa 6.3 m/s 14.6° 1023.8 hPa 2.7 m/s 30.4 mm
23:00 14.8° 1020.8 hPa 5.0 m/s 30.6 mm 14.9° 1020.5 hPa 5.3 m/s 13.2° 1024.8 hPa 1.7 m/s 30.6 mm
 05:56     20:35    Daglengte: 14:39 Vrijdag 23 Aug
02:00 14.5° 1020.1 hPa 4.1 m/s 30.6 mm 14.6° 1019.6 hPa 4.3 m/s 13.1° 1025.3 hPa 1.6 m/s 30.6 mm
05:00 15.4° 1019.2 hPa 5.3 m/s 30.6 mm 15.6° 1018.7 hPa 5.5 m/s 13.0° 1025.4 hPa 2.5 m/s 30.6 mm
08:00 16.5° 1018.4 hPa 6.5 m/s 30.6 mm 16.6° 1017.7 hPa 6.8 m/s 14.8° 1026.3 hPa 2.8 m/s 30.6 mm
11:00 17.9° 1019.6 hPa 6.1 m/s 30.8 mm 18.0° 1019.0 hPa 6.2 m/s 16.3° 1027.2 hPa 4.0 m/s 30.8 mm
14:00 19.2° 1020.8 hPa 5.5 m/s 30.8 mm 19.4° 1020.2 hPa 5.7 m/s 17.2° 1027.4 hPa 3.8 m/s 30.8 mm
17:00 18.0° 1021.4 hPa 4.6 m/s 30.8 mm 18.0° 1020.9 hPa 4.8 m/s 17.6° 1027.4 hPa 2.9 m/s 30.8 mm
20:00 16.5° 1022.1 hPa 3.7 m/s 30.8 mm 16.6° 1021.6 hPa 3.8 m/s 15.2° 1027.5 hPa 2.2 m/s 30.8 mm
23:00 15.5° 1023.0 hPa 3.4 m/s 30.8 mm 15.7° 1022.5 hPa 3.5 m/s 13.6° 1028.1 hPa 1.8 m/s 30.8 mm
 05:58     20:32    Daglengte: 14:34 Zaterdag 24 Aug
02:00 14.6° 1023.9 hPa 3.2 m/s 30.8 mm 14.8° 1023.5 hPa 3.3 m/s 12.8° 1028.5 hPa 1.9 m/s 30.8 mm
05:00 15.5° 1024.4 hPa 3.1 m/s 30.8 mm 15.8° 1024.1 hPa 3.2 m/s 11.9° 1028.1 hPa 2.0 m/s 30.8 mm
08:00 16.6° 1025.0 hPa 3.0 m/s 30.8 mm 16.8° 1024.7 hPa 3.1 m/s 14.3° 1028.1 hPa 2.5 m/s 30.8 mm
11:00 18.1° 1025.7 hPa 2.8 m/s 30.8 mm 18.1° 1025.4 hPa 2.8 m/s 19.1° 1028.4 hPa 3.0 m/s 30.8 mm
14:00 19.4° 1026.2 hPa 2.6 m/s 30.8 mm 19.3° 1026.1 hPa 2.5 m/s 20.7° 1027.5 hPa 3.5 m/s 30.8 mm
17:00 17.7° 1025.7 hPa 2.0 m/s 30.8 mm 17.5° 1025.5 hPa 1.9 m/s 20.2° 1027.0 hPa 3.2 m/s 30.8 mm
20:00 15.8° 1025.2 hPa 1.3 m/s 30.8 mm 15.7° 1025.0 hPa 1.3 m/s 16.8° 1026.9 hPa 0.9 m/s 30.8 mm
23:00 14.7° 1025.2 hPa 1.8 m/s 30.8 mm 14.6° 1025.0 hPa 1.8 m/s 15.5° 1027.4 hPa 1.8 m/s 30.8 mm
 06:00     20:29    Daglengte: 14:29 Zondag 25 Aug
02:00 13.6° 1025.2 hPa 2.3 m/s 30.8 mm 13.5° 1025.0 hPa 2.3 m/s 14.6° 1027.3 hPa 2.8 m/s 30.8 mm
08:00 15.9° 1024.3 hPa 3.2 m/s 30.8 mm 16.0° 1024.1 hPa 3.2 m/s 15.1° 1026.7 hPa 3.1 m/s 30.8 mm
14:00 23.7° 1023.0 hPa 2.0 m/s 30.8 mm 23.8° 1022.8 hPa 1.9 m/s 22.3° 1025.7 hPa 2.8 m/s 30.8 mm
20:00 19.1° 1021.5 hPa 1.3 m/s 30.8 mm 19.2° 1021.2 hPa 1.3 m/s 17.8° 1024.2 hPa 1.1 m/s 30.8 mm
 06:02     20:27    Daglengte: 14:25 Maandag 26 Aug
02:00 16.0° 1021.6 hPa 3.9 m/s 30.8 mm 16.2° 1021.4 hPa 4.0 m/s 14.0° 1023.4 hPa 2.7 m/s 30.8 mm
08:00 16.5° 1020.7 hPa 3.3 m/s 30.8 mm 16.7° 1020.6 hPa 3.4 m/s 14.6° 1021.4 hPa 2.0 m/s 30.8 mm
14:00 23.3° 1020.7 hPa 1.9 m/s 31.1 mm 23.7° 1020.7 hPa 1.9 m/s 19.2° 1020.9 hPa 1.4 m/s 31.1 mm
20:00 18.1° 1020.2 hPa 1.2 m/s 31.1 mm 18.3° 1020.1 hPa 1.2 m/s 16.0° 1021.2 hPa 1.8 m/s 31.1 mm
 06:04     20:24    Daglengte: 14:20 Dinsdag 27 Aug
02:00 16.4° 1021.1 hPa 1.0 m/s 31.1 mm 16.6° 1020.9 hPa 1.0 m/s 13.7° 1023.5 hPa 1.5 m/s 31.1 mm
08:00 16.3° 1021.2 hPa 1.1 m/s 31.1 mm 16.4° 1020.9 hPa 1.0 m/s 15.6° 1024.6 hPa 1.9 m/s 31.1 mm
14:00 20.3° 1021.6 hPa 2.9 m/s 31.1 mm 20.1° 1021.2 hPa 2.9 m/s 22.8° 1025.6 hPa 2.4 m/s 31.1 mm
20:00 16.3° 1016.5 hPa 3.2 m/s 0.0 mm
 06:06     20:21    Daglengte: 14:15 Woensdag 28 Aug
02:00 13.9° 1017.6 hPa 2.1 m/s 0.0 mm
08:00 14.3° 1017.5 hPa 1.8 m/s 0.1 mm
14:00 18.5° 1017.0 hPa 3.1 m/s 0.2 mm
20:00 16.2° 1016.5 hPa 2.7 m/s 0.0 mm
 06:08     20:18    Daglengte: 14:10 Donderdag 29 Aug
02:00 13.7° 1016.8 hPa 2.5 m/s 0.1 mm
08:00 14.4° 1016.4 hPa 2.1 m/s 0.0 mm
14:00 18.8° 1016.2 hPa 3.7 m/s 0.2 mm
20:00 16.3° 1015.1 hPa 3.2 m/s 0.2 mm
 06:10     20:16    Daglengte: 14:06 Vrijdag 30 Aug
02:00 13.8° 1015.3 hPa 1.9 m/s 0.4 mm
08:00 14.3° 1015.0 hPa 1.2 m/s 0.4 mm
14:00 18.5° 1014.7 hPa 2.0 m/s 0.5 mm
20:00 15.8° 1013.7 hPa 2.2 m/s 0.4 mm
 06:12     20:13    Daglengte: 14:01 Zaterdag 31 Aug
02:00 12.8° 1014.0 hPa 1.3 m/s 0.0 mm
08:00 13.8° 1013.5 hPa 1.9 m/s 0.4 mm
14:00 17.6° 1013.5 hPa 3.4 m/s 0.3 mm
20:00 15.4° 1012.6 hPa 2.7 m/s 0.2 mm
 06:15     20:10    Daglengte: 13:55 Zondag 01 Sep
02:00 13.3° 1012.4 hPa 3.6 m/s 0.2 mm
08:00 13.8° 1011.8 hPa 3.9 m/s 0.6 mm
14:00 17.1° 1012.2 hPa 4.9 m/s 0.5 mm
20:00 15.1° 1011.8 hPa 3.9 m/s 0.2 mm
FMI Hirlam - 7.5 km EWN WRFDA - 12 km DWD ICON - 7 km GFS - 25 km Basiskaart






























































</